Fort Knox, KY

6:52 PM EDT on June 27, 2017 (GMT -0400)
Godman Army Air Field

Weather History for KFTK - January, 2013

Change the Weather History Date:

Tuesday, January 15, 2013

  Actual Average Record
Temperature  
Mean Temperature 28 °F -  
Max Temperature 32 °F 38 °F 64 °F (2007)
Min Temperature 23 °F 22 °F 4 °F (2009)
Degree Days  
Heating Degree Days 38    
Moisture  
Dew Point 25 °F    
Average Humidity 85    
Maximum Humidity 100    
Minimum Humidity 69    
Precipitation  
Precipitation 0.08 in - - ()
Sea Level Pressure  
Sea Level Pressure 30.20 in    
Wind  
Wind Speed 8 mph (NNE)    
Max Wind Speed 13 mph    
Max Gust Speed 20 mph    
Visibility 8 miles    
Events Rain , Snow    
Averages and records for this station are not official NWS values.
T = Trace of Precipitation, MM = Missing Value Source: NWS Daily Summary

Daily Weather History Graph

Daily Weather History Graph

Search for Another Location

Airport or City:

Trip Planner

Search our weather history database for the weather conditions in past years. The results will help you decide how hot, cold, wet, or windy it might be!

Date:

Astronomy

Jan. 15, 2013 Rise Set
Actual Time 7:58 AM EST 5:48 PM EST
Civil Twilight 7:29 AM EST 6:17 PM EST
Nautical Twilight 6:57 AM EST 6:49 PM EST
Astronomical Twilight 6:25 AM EST 7:21 PM EST
Moon 10:08 AM EST (1/15) 10:32 PM EST (1/15)
Length of Visible Light 10h 47m
Length of Day
9h 50m
Waxing Crescent, 19% of the Moon is Illuminated
Jan 15
Waxing Crescent
Jan 18
First Quarter
Jan 26
Full
Feb 3
Last Quarter
Feb 10
New

Hourly Weather History & Observations

Time (EST) Temp. Windchill Dew Point Humidity Pressure Visibility Wind Dir Wind Speed Gust Speed Precip Events Conditions
12:55 AM 24.6 °F 14.4 °F 21.6 °F 88% 30.33 in 10.0 mi North 10.4 mph - N/A   Clear
1:55 AM 24.4 °F 15.6 °F 21.4 °F 88% 30.32 in 10.0 mi North 8.1 mph - N/A   Clear
2:55 AM 24.3 °F 14.6 °F 21.0 °F 87% 30.31 in 10.0 mi North 9.2 mph - N/A   Clear
3:55 AM 23.9 °F 15.0 °F 20.7 °F 87% 30.32 in 10.0 mi NNE 8.1 mph - N/A   Clear
4:32 AM 23.0 °F 14.7 °F 21.2 °F 93% 30.32 in 10.0 mi NNE 6.9 mph - N/A   Mostly Cloudy
4:55 AM 23.4 °F 16.2 °F 20.3 °F 88% 30.32 in 10.0 mi North 5.8 mph - N/A   Overcast
4:56 AM 23.0 °F 14.7 °F 21.2 °F 93% 30.32 in 10.0 mi North 6.9 mph - N/A   Overcast
5:55 AM 23.5 °F 15.4 °F 20.8 °F 89% 30.31 in 10.0 mi NNE 6.9 mph - N/A   Overcast
6:55 AM 23.5 °F 14.5 °F 20.5 °F 88% 30.31 in 10.0 mi NE 8.1 mph - N/A   Overcast
7:55 AM 23.5 °F 14.5 °F 20.5 °F 88% 30.33 in 10.0 mi NNE 8.1 mph - N/A   Mostly Cloudy
8:55 AM 24.1 °F 12.5 °F 20.3 °F 85% 30.32 in 7.0 mi NE 12.7 mph 19.6 mph N/A   Mostly Cloudy
9:55 AM 25.5 °F 15.5 °F 21.0 °F 83% 30.34 in 10.0 mi NE 10.4 mph - N/A   Overcast
10:55 AM 26.8 °F 17.7 °F 21.7 °F 81% 30.32 in 10.0 mi ENE 9.2 mph - N/A   Scattered Clouds
11:55 AM 28.4 °F 20.4 °F 22.8 °F 80% 30.29 in 10.0 mi NE 8.1 mph - N/A   Scattered Clouds
12:55 PM 30.0 °F 21.7 °F 23.7 °F 77% 30.22 in 10.0 mi NE 9.2 mph - N/A   Overcast
1:31 PM 32.0 °F 24.2 °F 24.8 °F 75% 30.16 in 10.0 mi NNE 9.2 mph - N/A   Overcast
1:55 PM 31.3 °F 22.7 °F 24.6 °F 76% 30.20 in 10.0 mi NE 10.4 mph - N/A   Overcast
2:55 PM 31.3 °F 23.9 °F 24.8 °F 77% 30.24 in 5.0 mi NNW 8.1 mph - N/A   Haze
3:55 PM 30.9 °F 22.2 °F 24.4 °F 77% 30.19 in 5.0 mi North 10.4 mph - N/A   Haze
4:55 PM 30.7 °F 20.9 °F 24.1 °F 76% 30.19 in 4.0 mi NNE 12.7 mph - N/A   Haze
5:55 PM 30.7 °F 22.0 °F 23.9 °F 76% 30.20 in 5.0 mi North 10.4 mph - N/A   Haze
6:44 PM 32.0 °F 24.2 °F 23.0 °F 69% 30.12 in 5.0 mi NNE 9.2 mph - N/A Snow Light Snow Grains
6:55 PM 30.9 °F 24.3 °F 24.1 °F 76% 30.17 in 7.0 mi NE 6.9 mph - 0.00 in Snow Light Snow Grains
7:05 PM 32.0 °F 24.8 °F 24.8 °F 75% 30.12 in 7.0 mi NE 8.1 mph - N/A   Overcast
7:20 PM 32.0 °F 27.5 °F 24.8 °F 75% 30.13 in 7.0 mi NE 4.6 mph - N/A Snow Light Snow Grains
7:33 PM 32.0 °F 27.5 °F 24.8 °F 75% 30.12 in 6.0 mi Variable 4.6 mph - N/A Rain Light Freezing Rain
7:55 PM 30.9 °F 24.3 °F 25.7 °F 81% 30.16 in 6.0 mi ENE 6.9 mph - 0.00 in Rain Light Freezing Rain
8:55 PM 30.7 °F 24.9 °F 27.3 °F 87% 30.13 in 5.0 mi ENE 5.8 mph - 0.01 in Rain , Snow Light Freezing Rain
9:14 PM 32.0 °F 26.4 °F 28.4 °F 87% 30.08 in 4.0 mi NE 5.8 mph - N/A Rain Light Freezing Rain
9:43 PM 32.0 °F 26.4 °F 28.4 °F 87% 30.06 in 5.0 mi ENE 5.8 mph - N/A Rain Light Freezing Rain
9:55 PM 30.6 °F 25.8 °F 28.2 °F 91% 30.09 in 4.0 mi NE 4.6 mph - 0.03 in Rain Light Freezing Rain
10:27 PM 32.0 °F 27.5 °F 28.4 °F 87% 30.06 in 4.0 mi North 4.6 mph - N/A   Light Freezing Drizzle
10:42 PM 30.2 °F 25.4 °F 28.4 °F 93% 30.10 in 6.0 mi North 4.6 mph - N/A Rain Light Freezing Rain
10:55 PM 30.9 °F 25.2 °F 29.3 °F 94% 30.12 in 6.0 mi NNW 5.8 mph - 0.02 in Rain Light Freezing Rain
11:27 PM 30.2 °F 25.4 °F 28.4 °F 93% 30.10 in 6.0 mi North 4.6 mph - N/A Rain Light Freezing Rain
11:34 PM 30.2 °F 24.3 °F 30.2 °F 100% 30.09 in 7.0 mi NNE 5.8 mph - N/A Rain Light Freezing Rain
11:47 PM 30.2 °F 24.3 °F 28.4 °F 93% 30.07 in 7.0 mi North 5.8 mph - N/A   Overcast
11:51 PM 30.2 °F 24.3 °F 28.4 °F 93% 30.07 in 7.0 mi NNE 5.8 mph - N/A   Overcast
11:55 PM 30.7 °F 27.3 °F 29.5 °F 95% 30.08 in 7.0 mi Variable 3.5 mph - 0.02 in   Overcast
11:58 PM 30.2 °F 24.3 °F 30.2 °F 100% 30.08 in 7.0 mi NNE 5.8 mph - N/A   Overcast